Location: Bennemühlen
(52.5740°N, 9.7135°E)
Time: 16:32:37
(UTC+00:00)

Tiros 1 despin weight - Pass Details

Date: 19 February 2026
Orbit: 556 x 593 km, 48.2° (Epoch: 11 March)

Event Time Altitude Azimuth Distance (km) Brightness Sun altitude
Rises 13:50:57 0° 212° (SSW) 2,737 ? 19.9°
Reaches altitude 10° 13:53:41 10° 195° (SSW) 1,839 ? 19.7°
Maximum altitude 13:56:40 19° 149° (SSE) 1,354 ? 19.4°
Drops below altitude 10° 13:59:39 10° 104° (ESE) 1,838 ? 19.1°
Sets 14:02:23 0° 86° (E) 2,735 ? 18.9°
